Avalon, CA

9:08 AM PDT on April 27, 2017 (GMT -0700)
Catalina

Weather History for KAVX - October, 2013

Change the Weather History Date:

Sunday, October 20, 2013

  Actual Average Record
Temperature  
Mean Temperature 63 °F -  
Max Temperature 75 °F 67 °F 90 °F (2003)
Min Temperature 53 °F 55 °F 50 °F (2002)
Degree Days  
Heating Degree Days 2    
Growing Degree Days 13 (Base 50)    
Moisture  
Dew Point 32 °F    
Average Humidity 34    
Maximum Humidity 82    
Minimum Humidity 12    
Precipitation  
Precipitation 0.00 in - - ()
Sea Level Pressure  
Sea Level Pressure 29.92 in    
Wind  
Wind Speed 6 mph (West)    
Max Wind Speed 10 mph    
Max Gust Speed -    
Visibility 9 miles    
Events      
Averages and records for this station are not official NWS values.
T = Trace of Precipitation, MM = Missing Value Source: NWS Daily Summary

Daily Weather History Graph

Daily Weather History Graph

Search for Another Location

Airport or City:

Trip Planner

Search our weather history database for the weather conditions in past years. The results will help you decide how hot, cold, wet, or windy it might be!

Date:

Astronomy

Oct. 20, 2013 Rise Set
Actual Time 7:02 AM PDT 6:13 PM PDT
Civil Twilight 6:37 AM PDT 6:38 PM PDT
Nautical Twilight 6:08 AM PDT 7:07 PM PDT
Astronomical Twilight 5:39 AM PDT 7:36 PM PDT
Moon 7:31 PM PDT (10/20) 8:39 AM PDT (10/20)
Length of Visible Light 12h 01m
Length of Day
11h 11m
Waning Gibbous, 97% of the Moon is Illuminated
Oct 20
Waning Gibbous
Oct 26
Last Quarter
Nov 3
New
Nov 9
First Quarter
Nov 17
Full

Hourly Weather History & Observations

Time (PDT) Temp. Dew Point Humidity Pressure Visibility Wind Dir Wind Speed Gust Speed Precip Events Conditions
12:51 AM 71.1 °F 19.0 °F 14% 29.94 in 10.0 mi WNW 9.2 mph - N/A   Clear
1:51 AM 71.1 °F 18.0 °F 13% 29.94 in 10.0 mi NW 6.9 mph - N/A   Clear
2:51 AM 71.1 °F 18.0 °F 13% 29.92 in 10.0 mi NW 8.1 mph - N/A   Clear
3:51 AM 71.1 °F 17.1 °F 13% 29.91 in 10.0 mi WNW 10.4 mph - N/A   Clear
4:51 AM 70.0 °F 19.0 °F 14% 29.91 in 10.0 mi WNW 6.9 mph - N/A   Clear
5:51 AM 68.0 °F 21.9 °F 17% 29.92 in 10.0 mi NW 5.8 mph - N/A   Clear
6:51 AM 68.0 °F 23.0 °F 18% 29.92 in 10.0 mi West 6.9 mph - N/A   Clear
7:51 AM 69.1 °F 24.1 °F 18% 29.93 in 10.0 mi NNW 3.5 mph - N/A   Clear
8:51 AM 70.0 °F 26.1 °F 19% 29.95 in 10.0 mi Calm Calm - N/A   Clear
9:51 AM 72.0 °F 39.9 °F 31% 29.95 in 10.0 mi Calm Calm - N/A   Clear
10:51 AM 73.0 °F 45.0 °F 37% 29.94 in 10.0 mi WSW 5.8 mph - N/A   Clear
11:51 AM 71.1 °F 48.9 °F 45% 29.94 in 10.0 mi SW 6.9 mph - N/A   Clear
12:51 PM 73.9 °F 35.1 °F 24% 29.92 in 10.0 mi SW 5.8 mph - N/A   Clear
1:51 PM 66.9 °F 52.0 °F 59% 29.91 in 10.0 mi WSW 8.1 mph - N/A   Clear
2:51 PM 69.1 °F 46.0 °F 44% 29.89 in 10.0 mi WSW 8.1 mph - N/A   Clear
3:51 PM 68.0 °F 42.1 °F 39% 29.89 in 10.0 mi WSW 10.4 mph - N/A   Clear
4:51 PM 68.0 °F 34.0 °F 28% 29.88 in 8.0 mi WSW 10.4 mph - N/A   Clear
5:51 PM 69.1 °F 24.1 °F 18% 29.88 in 10.0 mi West 8.1 mph - N/A   Clear
6:51 PM 66.9 °F 21.9 °F 18% 29.88 in 10.0 mi West 8.1 mph - N/A   Clear
7:51 PM 57.0 °F 48.9 °F 74% 29.91 in 10.0 mi WSW 4.6 mph - N/A   Clear
8:20 PM 53.6 °F 48.2 °F 82% 29.96 in 1.5 mi Calm Calm - N/A   Partly Cloudy
8:24 PM 53.6 °F 48.2 °F 82% 29.96 in 0.8 mi WSW 3.5 mph - N/A   Mist
8:39 PM 55.4 °F 48.2 °F 77% 29.96 in 1.5 mi WNW 5.8 mph - N/A   Haze
8:41 PM 59.0 °F 46.4 °F 63% 29.96 in 3.0 mi WNW 5.8 mph - N/A   Haze
8:51 PM 66.0 °F 24.1 °F 20% 29.90 in 10.0 mi WNW 6.9 mph - N/A   Partly Cloudy
9:51 PM 62.1 °F 27.0 °F 26% 29.91 in 10.0 mi Calm Calm - N/A   Clear
10:51 PM 66.9 °F 12.0 °F 12% 29.91 in 10.0 mi Calm Calm - N/A   Clear
11:51 PM 63.0 °F 28.0 °F 27% 29.91 in 10.0 mi Calm Calm - N/A   Clear